Regional Weather Roundup
Issued by NWS

Home | Current Version | Previous Version | Text Only | Print | Product List | Glossary Off
Versions: 1 2 3 4 5 6 7 8 9 10 11 12 13 14 15 16 17 18 19 20 21 22 23 24 25 26 27 28 29 30 31 32 33 34 35 36 37 38 39 40 41 42 43 44 45 46 47 48 49 50

000
ASUS43 KLSX 070407
RWRMO

WEATHER SUMMARY FOR MISSOURI
NATIONAL WEATHER SERVICE SPRINGFIELD MO
1100 PM CDT MON JUL 06 2015

NOTE: "FAIR" INDICATES FEW OR NO CLOUDS BELOW 12,000 FEET WITH NO
       SIGNIFICANT WEATHER AND/OR OBSTRUCTIONS TO VISIBILITY.
       CURRENT SKY AND/OR WEATHER CONDITIONS ARE NOT AVAILABLE FOR
       CHILLICOTHE AND FARMINGTON.

MOZ001>031-035>038-043-044-053-054-070500-
...NORTHERN AND WESTERN MISSOURI...

CITY           SKY/WX    TMP DP  RH WIND       PRES   REMARKS
KANSAS CTY INT CLOUDY    72  71  97 N3        29.93R
KANSAS C DTWN  CLOUDY    73  71  93 CALM      29.92R
LEE`S SUMMIT   CLOUDY    71  69  93 NW9       29.93R
ST JOSEPH      CLOUDY    68  66  93 MISG      29.95R FOG
CHILLICOTHE      N/A     73  71  93 N6        29.90R
KIRKSVILLE     CLOUDY    72  70  93 N7        29.89S

$$
MOZ066>068-077>081-088>096-101>105-070500-
...SOUTHWEST MISSOURI...

CITY           SKY/WX    TMP DP  RH WIND       PRES   REMARKS
SPRINGFIELD    CLOUDY    77  73  87 S9        29.96R
JOPLIN         RAIN      69  68  96 NW7       29.98R FOG

$$
MOZ032>034-039>042-045>050-055>058-069>072-070500-
...CENTRAL MISSOURI...

CITY           SKY/WX    TMP DP  RH WIND       PRES   REMARKS
COLUMBIA       CLOUDY    75  71  87 N12       29.90R
JEFFERSON CITY CLOUDY    80  72  76 S7        29.87F
ROLLA          CLOUDY    77  72  84 S12       29.92R
SEDALIA        LGT RAIN  73  70  90 W5        29.94R
WHITEMAN AFB   CLOUDY    72  71  96 W2        29.91R
WARRENSBURG    CLOUDY    70  70 100 CALM      29.92R FOG
OSAGE BEACH    CLOUDY    79  70  73 S8        29.89F

$$
MOZ051-052-059>065-070500-
...EAST CENTRAL MISSOURI...

CITY           SKY/WX    TMP DP  RH WIND       PRES   REMARKS
ST LOUIS INTL  CLOUDY    83  72  69 S10       29.91S
SPIRIT OF STL  CLOUDY    80  74  81 S8        29.89S
ST CHARLES     CLOUDY    80  75  84 S9        29.88F HAZE

$$
MOZ072>076-082>087-097>100-106>115-070500-
...SOUTH CENTRAL AND SOUTHEAST MISSOURI...

CITY           SKY/WX    TMP DP  RH WIND       PRES   REMARKS
CAPE GIRARDEAU MOCLDY    79  74  84 S9        29.98R
FARMINGTON     MOCLDY    75  73  94 S12       30.00S
POPLAR BLUFF   CLOUDY    78  73  84 S8        29.98R
WEST PLAINS    CLOUDY    78  71  79 S9        30.01R

$$


USA.gov is the U.S. government's official web portal to all federal, state and local government web resources and services.